Weather History for Las Vegas, NV

Change the Weather History Date:

Monday, July 29, 2013

  Actual Average Record
Temperature  
Mean Temperature 66 °F -  
Max Temperature 82 °F - - ()
Min Temperature 51 °F - - ()
Cooling Degree Days 2    
Growing Degree Days 16 (Base 50)    
Moisture  
Dew Point 45 °F    
Average Humidity 52    
Maximum Humidity 89    
Minimum Humidity 18    
Precipitation  
Precipitation 0.01 in - - ()
Sea Level Pressure  
Sea Level Pressure 30.37 in    
Wind  
Wind Speed 6 mph (SW)    
Max Wind Speed 17 mph    
Max Gust Speed 28 mph    
Visibility 10 miles    
Events      
T = Trace of Precipitation, MM = Missing Value Source: NWS Daily Summary

Daily Weather History Graph

Daily Weather History Graph

Search for Another Location

Airport:

Trip Planner

Search our weather history database for the weather conditions in past years. The results will help you decide how hot, cold, wet, or windy it might be!

Date:

Astronomy

Jul. 29, 2013 Rise Set
Actual Time 5:46 AM PDT 7:55 PM PDT
Civil Twilight 5:17 AM PDT 8:24 PM PDT
Nautical Twilight 4:41 AM PDT 9:00 PM PDT
Astronomical Twilight 4:02 AM PDT 9:39 PM PDT
Moon No Moon Rise 1:22 PM PDT (7/29)
Length of Visible Light 15h 07m
Length of Day
14h 09m
Waning Gibbous, 50% of the Moon is Illuminated
Jul 29
Waning Gibbous
Aug 6
New
Aug 14
First Quarter
Aug 20
Full
Aug 28
Last Quarter

Hourly Weather History & Observations

Time (PDT) Temp. Dew Point Humidity Pressure Visibility Wind Dir Wind Speed Gust Speed Precip Events Conditions
12:56 AM 54.0 °F 48.9 °F 83% 30.35 in 10.0 mi SSW 3.5 mph - N/A   Unknown
1:56 AM 54.0 °F 50.0 °F 86% 30.34 in 10.0 mi WNW 6.9 mph - N/A   Unknown
2:56 AM 53.1 °F 48.9 °F 86% 30.34 in 10.0 mi Calm Calm - N/A   Unknown
3:56 AM 52.0 °F 48.9 °F 89% 30.34 in 10.0 mi WNW 6.9 mph - N/A   Unknown
4:56 AM 51.1 °F 48.0 °F 89% 30.35 in 10.0 mi NNW 3.5 mph - N/A   Unknown
5:56 AM 52.0 °F 48.0 °F 86% 30.36 in 10.0 mi NW 9.2 mph - N/A   Unknown
6:56 AM 57.0 °F 53.1 °F 87% 30.37 in 10.0 mi Calm Calm - N/A   Unknown
7:56 AM 60.1 °F 52.0 °F 75% 30.38 in 10.0 mi Calm Calm - N/A   Unknown
8:56 AM 66.9 °F 51.1 °F 57% 30.38 in 10.0 mi Calm Calm - N/A   Unknown
9:56 AM 70.0 °F 48.9 °F 47% 30.38 in 10.0 mi Calm Calm - N/A   Unknown
10:56 AM 75.9 °F 46.9 °F 36% 30.38 in 10.0 mi SSE 8.1 mph - N/A   Unknown
11:56 AM 78.1 °F 46.9 °F 33% 30.38 in 10.0 mi Variable 3.5 mph - N/A   Unknown
12:56 PM 73.0 °F 53.1 °F 49% 30.38 in 10.0 mi ENE 6.9 mph - 0.01 in   Unknown
1:56 PM 81.0 °F 44.1 °F 27% 30.37 in 10.0 mi SSW 16.1 mph 23.0 mph N/A   Unknown
2:56 PM 82.0 °F 43.0 °F 25% 30.36 in 10.0 mi SSW 17.3 mph 24.2 mph N/A   Unknown
3:56 PM 82.9 °F 39.9 °F 22% 30.36 in 10.0 mi SSW 17.3 mph 27.6 mph N/A   Unknown
5:56 PM 81.0 °F 36.0 °F 20% 30.36 in 10.0 mi SSW 13.8 mph 24.2 mph N/A   Unknown
6:56 PM 80.1 °F 33.1 °F 18% 30.37 in 10.0 mi SSW 15.0 mph 21.9 mph N/A   Unknown
7:56 PM 75.9 °F 35.1 °F 23% 30.38 in 10.0 mi SSW 9.2 mph - N/A   Unknown
8:56 PM 71.1 °F 39.0 °F 31% 30.40 in 10.0 mi SSW 8.1 mph - N/A   Unknown
9:56 PM 69.1 °F 39.9 °F 35% 30.42 in 10.0 mi SSW 8.1 mph - N/A   Unknown
10:56 PM 64.0 °F 39.0 °F 40% 30.42 in 10.0 mi WSW 6.9 mph - N/A   Unknown
11:56 PM 62.1 °F 37.9 °F 41% 30.44 in 10.0 mi West 5.8 mph - N/A   Unknown